SCP
1 1 1 1 1 1 0 0 0 0 0 0 0 0 0 0 0 0 0 0 0 0 0 0 1 1 1 1 1 1 1 1 1 1 1 1 1 1 1 1 1 1 1
1 1 1 1 1 1 0 0 0 0 0 0 0 0 0 0 0 0 0 0 0 0 0 0 1 1 1 1 1 1 1 1 1 1 1 1 1 1 1 1 1 1 1
1 1 1 1 1 1 0 0 0 0 0 0 0 0 0 0 0 0 0 1 0 0 0 0 0 0 0 0 0 0 1 1 1 1 1 1 1 1 1 1 1 1 1
1 1 1 1 1 1 0 0 0 0 0 0 0 0 0 0 0 1 1 1 1 1 0 0 0 0 0 0 0 0 0 0 0 1 1 1 1 1 1 1 1 1 1
1 1 1 1 1 1 1 0 0 0 0 0 0 0 0 0 0 1 1 1 1 1 1 0 0 0 0 0 0 0 0 0 0 1 1 1 1 1 1 1 1 1 1
1 1 1 2 1 1 1 0 0 0 0 0 0 0 0 0 0 1 1 1 1 1 1 0 0 0 0 0 0 0 0 0 0 1 1 1 1 1 1 1 1 1 1
1 1 2 2 2 1 1 0 0 0 0 0 0 0 0 0 0 0 1 1 1 1 1 1 1 0 0 0 0 0 0 0 0 0 1 1 1 1 1 1 1 1 1
2 2 2 2 2 2 1 1 0 0 0 0 0 0 0 0 0 0 0 1 1 1 1 1 1 0 0 0 0 0 0 0 0 0 0 1 0 1 1 1 1 1 1
2 2 2 2 2 1 1 1 0 0 0 0 0 0 0 0 0 0 0 0 0 0 1 1 1 0 0 0 0 0 0 0 0 0 0 0 0 0 1 1 1 1 1
1 1 1 1 1 1 1 0 0 0 0 0 0 0 0 0 0 0 0 0 0 0 0 0 1 1 0 0 0 0 0 0 0 0 0 0 0 0 0 1 1 1 1
1 1 1 1 1 1 1 1 0 0 0 0 1 1 1 1 0 0 0 0 0 0 0 0 1 1 1 0 0 0 0 0 0 0 0 0 0 0 0 0 1 1 1
1 1 1 1 1 1 1 1 1 0 0 0 1 1 1 1 1 1 1 0 0 0 0 0 0 1 1 0 0 0 0 0 0 0 0 0 0 0 0 0 1 1 1
1 1 0 1 1 1 1 1 0 0 0 0 0 1 1 1 1 1 1 0 0 0 0 0 0 0 0 0 0 0 0 0 0 0 0 0 0 0 0 0 0 1 1
1 1 0 0 1 1 1 0 0 0 0 0 0 0 0 0 0 0 1 1 0 0 0 0 0 0 0 0 0 0 0 0 0 0 0 0 0 0 0 0 0 0 1
1 1 0 0 0 0 1 0 0 0 0 0 0 0 0 0 0 0 0 1 0 0 0 0 0 0 0 0 0 0 0 0 0 0 0 0 0 0 0 0 0 0 0
1 1 0 0 0 0 0 0 0 0 0 0 0 0 0 0 0 0 0 0 0 0 0 0 0 0 0 0 0 0 0 0 0 0 0 0 0 0 0 0 0 0 0
1 1 0 0 0 0 0 0 0 0 0 0 0 0 0 0 0 0 0 0 1 0 0 0 0 0 0 0 0 0 0 0 0 0 0 0 0 0 0 0 0 0 0
1 0 0 0 0 0 0 0 0 0 1 1 0 0 0 0 0 0 0 0 1 1 0 0 0 0 0 0 0 0 0 0 0 0 0 0 0 0 0 0 0 0 0
1 0 0 0 0 0 0 0 0 0 0 0 1 1 1 1 1 1 1 1 1 1 1 0 0 0 0 0 0 0 0 0 0 0 0 0 0 0 0 0 0 0 0
1 0 0 0 0 0 0 0 0 0 0 0 1 1 1 1 1 1 1 1 1 1 1 0 0 0 0 0 0 0 0 0 0 0 0 0 0 0 0 0 0 0 0
1 0 0 0 0 0 0 0 0 0 0 0 1 1 1 1 1 1 1 1 1 1 1 0 0 0 0 0 0 0 0 0 0 0 0 0 0 0 0 0 0 0 0
1 1 0 0 0 0 0 0 0 0 0 0 1 1 1 1 1 0 0 1 1 1 1 0 0 0 0 0 0 0 0 0 0 0 0 0 0 0 0 0 0 0 0
1 1 1 1 0 0 0 0 0 0 0 0 0 0 1 0 0 0 0 1 1 1 0 0 0 0 0 0 0 0 0 0 1 1 0 0 0 0 0 0 0 0 0
1 1 1 1 1 0 0 0 0 0 0 0 0 0 0 0 0 0 0 1 1 1 0 0 0 0 0 0 0 0 0 0 0 1 1 0 0 0 0 0 0 0 0
2 2 2 1 1 1 0 0 0 0 0 0 0 0 0 0 0 0 0 1 1 1 0 0 0 0 0 0 0 0 0 0 0 1 1 1 0 0 0 0 0 0 0
2 2 2 2 1 1 0 0 0 0 0 0 0 0 0 0 0 0 0 1 1 1 0 0 0 0 0 0 0 0 0 0 0 0 1 1 0 0 0 0 0 0 0
Wind_Speed
4 4 4 4 5 4 4 4 5 6 6 7 6 7 7 6 6 5 5 10 10 9 9 9 10 10 10 9 8 7 7 7 8 8 8 8 7 6 5 5 5 5 5
4 4 5 5 4 4 4 4 6 5 5 5 6 7 6 6 6 6 5 7 10 10 10 10 10 10 9 9 9 9 8 8 9 9 9 9 8 7 6 6 6 5 6
4 4 4 4 4 4 4 4 6 5 5 5 6 6 6 6 5 6 5 4 5 9 10 10 10 9 9 9 8 9 9 9 8 8 8 9 9 8 7 6 6 6 6
4 3 3 3 3 4 3 3 3 4 4 4 4 5 5 5 6 6 5 5 4 4 7 9 9 9 9 9 8 8 8 8 8 8 8 8 8 8 8 8 7 6 6
3 3 3 2 3 3 3 3 4 3 4 4 4 4 4 4 4 4 5 6 5 4 5 7 7 9 9 9 8 8 8 8 8 8 7 7 7 7 7 8 8 8 7
3 3 2 3 3 3 3 3 4 3 3 3 4 4 4 4 4 4 4 4 4 5 5 4 4 6 8 8 8 8 8 8 8 8 8 7 7 7 7 8 8 7 7
2 2 1 3 2 2 2 3 3 3 3 2 2 3 4 3 4 3 3 3 4 4 4 4 3 3 3 6 7 7 7 7 7 7 7 6 6 6 6 7 7 7 6
2 2 2 2 2 2 2 2 2 1 2 1 0 1 2 2 2 2 2 2 3 3 3 4 4 3 3 3 6 6 7 6 6 6 6 6 6 6 6 6 6 6 5
2 2 2 2 2 2 2 2 1 1 1 1 1 1 0 1 1 2 2 2 2 2 2 3 3 3 3 2 3 5 5 5 5 5 5 5 5 5 5 5 5 5 5
1 1 1 2 2 1 1 1 1 1 1 1 1 1 2 1 1 1 1 2 2 2 2 2 2 2 3 2 4 5 5 4 4 4 3 3 3 3 4 3 3 4 4
1 1 1 1 1 1 1 1 1 1 1 1 0 0 0 0 2 1 1 0 1 1 2 2 1 2 2 2 2 5 4 3 3 3 2 2 3 3 3 3 3 3 3
1 2 1 1 1 1 1 1 1 2 2 1 1 1 1 1 1 1 1 1 0 1 1 1 1 1 1 1 3 5 3 2 2 2 2 2 2 2 2 2 2 3 2
2 2 2 2 1 1 2 2 2 2 2 2 2 2 1 1 1 1 1 1 1 1 0 0 1 1 1 1 2 3 2 2 2 2 2 2 2 2 2 1 2 2 1
2 2 2 2 2 2 2 2 2 2 2 3 2 2 1 1 1 1 2 2 2 1 1 1 0 0 1 0 2 1 1 2 1 1 1 1 2 2 2 2 1 1 1
1 2 2 2 2 2 2 2 2 3 2 3 2 2 2 1 2 2 2 3 3 2 2 1 0 0 1 1 1 1 0 3 1 0 0 0 1 1 1 1 1 1 1
2 3 3 2 2 2 2 2 2 2 3 2 2 2 2 2 1 2 2 3 3 3 2 1 1 1 1 1 0 1 1 2 1 1 1 1 1 1 1 0 0 1 1
3 3 3 3 2 2 2 2 2 3 3 3 3 3 3 3 2 2 2 2 2 3 3 2 2 2 2 2 1 2 1 2 1 2 2 2 2 2 2 2 1 1 1
3 3 3 3 3 3 3 3 3 3 3 3 3 3 3 2 3 2 2 3 3 3 3 3 2 2 3 2 2 2 2 2 2 2 3 4 3 4 3 3 3 2 2
2 3 3 3 3 3 3 3 3 3 4 3 3 4 3 3 3 2 3 3 2 2 2 3 3 2 3 2 2 2 3 2 2 2 4 5 5 5 5 4 4 3 3
3 3 3 3 3 3 3 3 3 4 3 3 3 4 4 4 3 3 3 3 2 2 2 3 3 3 2 2 2 2 2 2 2 2 2 3 4 6 6 6 6 5 4
3 3 3 3 3 3 2 2 3 3 3 3 3 3 3 2 2 2 2 3 3 3 3 3 3 3 3 3 3 3 3 2 2 2 2 3 3 4 5 7 7 6 4
3 3 4 3 3 2 1 2 3 3 3 4 4 3 3 3 2 3 3 3 3 4 4 4 4 4 4 4 3 3 3 3 3 2 2 3 3 3 3 3 3 5 5
3 3 3 3 3 2 2 3 4 4 4 4 4 4 3 2 4 4 4 5 5 5 6 6 6 6 5 4 4 5 5 4 4 2 3 3 3 3 3 2 4 5 5
3 3 3 4 3 2 3 4 5 6 4 4 4 5 4 4 3 4 4 5 5 5 5 6 6 6 5 4 5 5 5 4 4 3 4 4 3 3 3 3 6 6 6
3 3 3 4 4 3 3 4 4 4 4 5 5 5 5 5 2 3 5 5 5 5 4 5 5 5 5 5 5 4 4 4 4 4 3 3 3 3 3 3 4 7 7
3 3 3 4 4 3 4 4 5 4 4 4 4 4 4 5 3 4 6 6 6 5 5 4 5 5 5 5 7 7 5 5 4 3 3 3 3 2 3 3 2 3 5
Wind_Direction
64 66 70 66 61 61 64 61 64 67 65 62 60 61 62 61 62 65 73 66 60 63 69 78 79 76 74 73 73 74 79 81 80 81 81 80 81 84 89 96 102 102 104
66 66 71 71 66 61 60 62 67 68 66 63 62 60 60 61 60 63 68 76 69 62 63 71 74 75 75 75 73 74 76 81 82 83 79 76 77 80 83 86 88 92 100
74 74 71 74 72 70 68 66 71 70 71 72 71 64 59 56 58 63 67 66 80 77 67 68 69 70 72 73 73 74 73 76 82 86 83 78 75 75 74 78 88 91 95
72 77 77 78 79 78 75 77 80 78 76 71 71 68 68 63 61 60 65 70 65 73 79 68 64 65 66 67 69 73 72 74 77 84 83 80 79 78 77 75 79 83 87
73 84 78 81 86 83 80 79 78 77 78 76 78 74 67 65 61 59 58 58 61 64 74 84 77 66 61 62 65 70 71 74 77 79 79 80 83 83 84 83 80 80 85
81 84 95 93 90 90 87 87 87 79 76 79 85 80 73 69 64 54 51 55 54 57 59 70 85 84 71 61 60 65 71 71 77 77 76 76 80 86 84 85 83 79 82
92 91 96 101 102 101 99 99 102 99 88 89 108 107 99 77 61 61 48 46 57 53 54 62 55 61 89 84 63 61 67 69 76 75 72 70 76 85 87 89 89 87 84
109 117 121 119 123 117 116 104 104 105 90 79 75 157 135 130 81 67 56 41 44 53 44 50 60 56 46 67 74 65 57 66 72 71 71 68 70 76 83 89 91 91 87
130 125 122 128 128 133 129 130 136 128 114 98 26 340 320 100 105 115 69 55 43 40 37 36 40 48 48 56 78 80 55 54 61 63 67 69 68 76 83 87 90 91 89
150 145 145 159 153 133 126 156 160 201 238 164 90 355 351 36 249 146 135 67 47 35 21 23 21 32 41 48 66 67 56 43 47 51 61 69 71 80 87 87 98 103 97
159 167 174 186 175 164 152 157 212 245 248 264 239 130 104 212 264 254 191 134 81 35 15 1 12 21 32 45 51 62 57 44 40 45 57 64 69 74 93 94 99 107 102
176 178 189 197 195 188 175 200 220 232 257 259 250 233 242 240 245 247 246 231 255 36 16 7 350 9 20 46 59 61 53 49 42 31 32 50 64 67 86 99 103 106 99
190 188 197 205 201 203 199 207 219 228 229 234 245 255 256 271 272 263 256 269 282 262 239 258 338 340 359 34 79 84 70 47 37 32 20 34 46 50 55 71 90 89 93
213 198 202 202 201 200 207 200 224 230 235 226 230 240 245 253 254 247 256 261 259 238 231 240 176 315 333 309 55 218 111 95 39 21 23 41 49 44 40 42 79 61 44
219 206 203 202 200 201 210 203 216 224 233 232 224 220 234 241 244 245 244 251 261 261 265 285 257 223 263 328 39 241 309 89 69 329 41 79 78 65 53 58 41 52 22
200 200 205 207 201 205 209 209 218 226 226 228 232 232 232 236 240 239 247 252 258 264 271 279 288 288 307 272 246 275 2 116 168 194 222 226 207 195 167 155 334 342 348
198 205 204 212 212 212 209 206 220 218 224 223 222 227 234 237 237 231 234 245 250 251 249 270 284 290 273 275 263 270 268 249 194 176 217 226 220 215 212 211 246 263 267
204 213 209 215 219 219 213 214 224 230 234 232 229 229 232 227 237 241 231 236 240 241 241 253 271 283 285 290 285 276 274 270 266 153 201 220 228 227 228 228 235 245 252
209 212 215 219 222 223 219 223 228 234 238 241 240 238 236 232 231 224 227 232 237 236 242 247 263 282 274 272 275 269 265 263 263 187 198 214 224 229 229 228 227 229 236
215 220 219 222 225 226 224 226 229 233 237 240 241 241 241 234 234 227 226 227 229 233 237 248 254 258 264 266 261 256 258 258 257 244 233 225 214 217 222 224 226 224 226
223 223 221 220 223 226 223 234 235 239 243 242 244 246 246 244 277 262 250 233 229 235 238 244 250 250 250 247 251 250 262 266 261 245 255 235 222 224 212 215 219 220 225
232 226 223 217 216 221 174 260 263 244 244 244 245 243 228 210 210 228 248 258 255 245 248 250 254 255 258 261 261 254 253 253 260 232 254 260 249 245 235 222 185 202 216
224 225 226 221 218 196 178 223 252 254 248 250 249 247 248 229 223 230 219 221 230 238 249 258 257 260 264 263 259 256 253 255 261 250 250 257 247 251 246 211 173 200 214
216 221 222 219 220 200 194 222 243 247 246 246 246 246 245 242 231 249 247 243 245 241 241 248 259 267 270 270 265 265 262 260 263 239 229 249 246 246 245 226 186 199 210
219 219 219 220 221 204 188 213 245 244 246 247 243 243 244 245 224 243 246 248 250 247 227 236 263 275 281 266 262 256 246 239 247 242 226 244 251 258 250 235 194 191 203
217 220 219 226 228 223 188 209 244 241 246 248 245 239 224 236 230 239 247 249 251 254 251 239 243 241 243 231 230 238 240 242 251 250 218 230 246 256 255 234 225 206 206